TimeCST,TemperatureF,Dew PointF,Humidity,Sea Level PressureIn,VisibilityMPH,Wind Direction,Wind SpeedMPH,Gust SpeedMPH,PrecipitationIn,Events,Conditions,WindDirDegrees,DateUTC
12:53 AM,23.0,5.0,46,30.19,10.0,SSW,16.1,28.8,N/A,,Clear,210,2013-11-25 06:53:00
1:53 AM,23.0,5.0,46,30.16,10.0,SSW,20.7,31.1,N/A,,Clear,210,2013-11-25 07:53:00
2:53 AM,24.1,6.1,46,30.12,10.0,SSW,18.4,28.8,N/A,,Overcast,210,2013-11-25 08:53:00
3:53 AM,25.0,7.0,46,30.08,10.0,SSW,21.9,28.8,N/A,,Mostly Cloudy,210,2013-11-25 09:53:00
4:53 AM,26.1,6.1,43,30.06,9.0,SW,20.7,32.2,0.00,Snow,Light Snow,220,2013-11-25 10:53:00
5:38 AM,24.8,10.4,54,29.99,4.0,SW,18.4,29.9,0.00,Snow,Light Snow,220,2013-11-25 11:38:00
5:51 AM,23.0,15.8,74,29.99,2.0,SW,17.3,29.9,0.00,Snow,Light Snow,220,2013-11-25 11:51:00
5:53 AM,23.0,15.1,72,30.05,2.0,SSW,16.1,27.6,0.00,Snow,Light Snow,210,2013-11-25 11:53:00
6:03 AM,24.8,14.0,64,29.99,4.0,SSW,17.3,24.2,0.00,Snow,Light Snow,210,2013-11-25 12:03:00
6:19 AM,23.0,15.8,74,29.99,1.8,SW,12.7,26.5,0.00,Snow,Light Snow,220,2013-11-25 12:19:00
6:53 AM,23.0,17.1,78,30.05,1.2,SSW,13.8,21.9,0.00,Snow,Light Snow,210,2013-11-25 12:53:00
7:01 AM,23.0,17.6,80,29.98,3.0,SSW,11.5,23.0,0.00,Snow,Light Snow,210,2013-11-25 13:01:00
7:53 AM,24.1,18.0,77,30.05,7.0,SW,17.3,24.2,0.00,,Overcast,220,2013-11-25 13:53:00
8:20 AM,24.8,17.6,74,29.99,10.0,SSW,15.0,25.3,N/A,,Overcast,210,2013-11-25 14:20:00
8:53 AM,25.0,19.0,78,30.02,10.0,SW,20.7,27.6,N/A,,Overcast,220,2013-11-25 14:53:00
9:20 AM,26.6,19.4,74,29.98,10.0,SW,16.1,24.2,N/A,,Overcast,230,2013-11-25 15:20:00
9:53 AM,27.0,19.9,75,30.03,10.0,SW,12.7,21.9,N/A,,Overcast,230,2013-11-25 15:53:00
10:53 AM,28.0,21.0,75,30.01,10.0,SW,9.2,23.0,N/A,,Overcast,230,2013-11-25 16:53:00
11:53 AM,28.9,21.0,72,30.00,10.0,SW,8.1,20.7,N/A,,Overcast,230,2013-11-25 17:53:00
12:53 PM,30.0,21.9,72,29.99,10.0,WSW,12.7,23.0,N/A,,Overcast,250,2013-11-25 18:53:00
1:10 PM,30.2,21.2,69,29.93,10.0,SW,11.5,19.6,N/A,,Overcast,220,2013-11-25 19:10:00
1:53 PM,30.9,21.9,69,29.98,10.0,SW,11.5,18.4,N/A,,Partly Cloudy,220,2013-11-25 19:53:00
2:53 PM,32.0,23.0,69,29.99,10.0,WSW,10.4,19.6,N/A,,Scattered Clouds,250,2013-11-25 20:53:00
3:45 PM,30.2,23.0,75,29.97,10.0,WSW,6.9,18.4,N/A,,Overcast,250,2013-11-25 21:45:00
3:53 PM,30.9,23.0,72,30.02,10.0,WSW,8.1,18.4,N/A,,Overcast,240,2013-11-25 21:53:00
4:24 PM,30.2,21.2,69,29.97,10.0,WSW,6.9,-,N/A,,Scattered Clouds,240,2013-11-25 22:24:00
4:53 PM,30.0,21.9,72,30.02,10.0,Variable,5.8,-,N/A,,Clear,0,2013-11-25 22:53:00
5:53 PM,28.9,21.9,75,30.04,10.0,WSW,4.6,-,N/A,,Clear,240,2013-11-25 23:53:00
6:53 PM,30.0,23.0,75,30.04,10.0,SSW,8.1,-,N/A,,Overcast,210,2013-11-26 00:53:00
7:53 PM,30.0,23.0,75,30.04,10.0,SW,8.1,-,N/A,,Overcast,220,2013-11-26 01:53:00
8:53 PM,30.0,23.0,75,30.03,10.0,SSW,10.4,-,N/A,,Overcast,210,2013-11-26 02:53:00
9:53 PM,30.9,24.1,76,30.03,10.0,SW,6.9,-,N/A,,Overcast,220,2013-11-26 03:53:00
10:53 PM,30.9,24.1,76,30.02,10.0,SW,10.4,18.4,N/A,,Overcast,220,2013-11-26 04:53:00
11:53 PM,32.0,24.1,73,30.01,10.0,SW,8.1,-,N/A,,Overcast,220,2013-11-26 05:53:00